map of ALC home
ALC - Airport
Location
City:  Alicante, Valenciana, Spain
Name:Alicante
Old (Alt.):El Altet
ICAO:LEAL
IATA:ALC

Details
Type:Airport (Aerodrome, Airfield)
Use:Public/Civil
Latitude:3816'56"N (38.282169)
Longitude:033'29"W (-0.558155)
Datum:WGS 1984
Elevation:142 ft (43 m)
Variation:0.26E (WMM2015 magnetic declination)
0.11 annual change
Runways:1
Longest:9842 × 148 ft (3000 × 45 m), paved

Time
Time Zone:UTC+1 (DST+2)
Local Time:

Weather
METAR:LEAL 190330Z 01004KT 9999 FEW020 24/19 Q1019 NOSIG
TAF:LEAL 182300Z 1900/1924 10007KT 9999 SCT020 TX30/1912Z TN22/1906Z
BECMG 1909/1911 10013KT
TEMPO 1911/1916 10013G23KT
BECMG 1921/1923 33006KT

Related Locations
Nearby:
Farthest:GIS: 12357 mi / 19887 km
Gisborne, GIS, NZ

Find:

   beyond  
but within

Other Information
Maps:
NOTAMs:
Links:
Sources:

  
  • flag of Spain
  • flag of Valenciana
  

Sectional Chart

Flight Planning
at skyvector.com

Satellite Image

Google Maps Satellite view

 

Copyright © 2004-2018 Karl L. Swartz. All rights reserved.
The Great Circle Mapper name and logo are trademarks of the Great Circle Mapper.
All other trademarks mentioned herein belong to their respective owners.
Please see credits for attibutions and further copyright information.

  Follow gcmap on Facebook Follow gcmap on Twitter Follow gcmap on Google+ GCmap on LinkedIn

hCard Microformat

Geo Microformat